This demonstration page uses our WeatherBlox Daily Observations layout. Learn more.

Left ArrowRight Arrow

34.16533, -84.80231

Hourly Observations for August 9, 2020

Temp ( °F °C ) Dew Point ( °F °C ) Humidity (%) Winds ( mph kmh ) Pressure ( in mb ) Visibility ( mi km ) Precip ( " mm )
12:53 am 00:53 Clear 72 22.2 69 20.6 91 91 Calm 30.12 1020 8 13 0.00 0.00
1:53 am 01:53 Clear with Mist and Fog 71 21.7 69 20.6 94 94 Calm 30.11 1020 6 10 0.00 0.00
2:53 am 02:53 Clear 71 21.7 68 20 90 90 Calm 30.11 1020 8 13 0.00 0.00
3:53 am 03:53 Clear with Mist and Fog 70 21.1 68 20 93 93 Calm 30.11 1020 5 8 0.00 0.00
4:53 am 04:53 Clear with Mist and Fog 70 21.1 67 19.4 90 90 Calm 30.11 1020 4 6 0.00 0.00
5:53 am 05:53 Clear with Mist and Fog 70 21.1 67 19.4 90 90 Calm 30.11 1020 4 6 0.00 0.00
6:53 am 06:53 Clear with Mist and Fog 69 20.6 67 19.4 93 93 Calm 30.13 1020 5 8 0.00 0.00
7:53 am 07:53 Sunny with Mist and Fog 72 22.2 69 20.6 91 91 Calm 30.14 1021 6 10 0.00 0.00
8:53 am 08:53 Sunny 77 25 72 22.2 85 85 Calm 30.15 1021 8 13 0.00 0.00
9:53 am 09:53 Sunny 80 26.7 72 22.2 76 76 Calm 30.15 1021 8 13 0.00 0.00
10:53 am 10:53 Sunny 84 28.9 73 22.8 70 70 Calm 30.14 1021 9 14 0.00 0.00
11:53 am 11:53 Sunny 89 31.7 71 21.7 55 55 Calm 30.14 1021 10 16 0.00 0.00
12:53 pm 12:53 Mostly Sunny 92 33.3 70 21.1 49 49 Calm 30.13 1020 10 16 0.00 0.00
1:53 pm 13:53 Sunny 89 31.7 72 22.2 57 57 S 5 7 30.11 1020 10 16 0.01 0.25
2:53 pm 14:53 Mostly Sunny 93 33.9 70 21.1 47 47 VRB 3 6 30.08 1019 10 16 0.00 0.00
3:53 pm 15:53 Partly Cloudy 92 33.3 67 19.4 44 44 Calm 30.06 1018 10 16 0.00 0.00
4:53 pm 16:53 Partly Cloudy 91 32.8 69 20.6 49 49 SSE 6 9 30.04 1017 10 16 0.00 0.00
5:10 pm 17:10 Mostly Cloudy with Heavy Rain 83 28.3 72 22.2 70 70 NE 15 24 30.07 1018 2 3 0.15 3.81
5:19 pm 17:19 Cloudy with Thunderstorms 80 26.7 68 20 67 67 N 16 26 30.07 1018 2 3 0.24 6.10
5:23 pm 17:23 Cloudy with Strong Thunderstorms 77 25 67 19.4 71 71 N 15 24 30.09 1019 2 3 0.34 8.64
5:30 pm 17:30 Cloudy with Strong Thunderstorms 79 26.1 67 19.4 67 67 E 18 30 30.07 1018 1 1 0.68 17.27
5:37 pm 17:37 Cloudy with Thunderstorms 79 26.1 68 20 69 69 ENE 5 7 30.06 1018 1 2 0.72 18.29
5:40 pm 17:40 Cloudy with Thunderstorms 78 25.6 69 20.6 74 74 ESE 6 9 30.06 1018 3 4 0.72 18.29
5:43 pm 17:43 Cloudy with Nearby Thunderstorms 79 26.1 71 21.7 77 77 ESE 8 13 30.06 1018 8 13 0.72 18.29
5:53 pm 17:53 Mostly Cloudy 79 26.1 73 22.8 82 82 S 3 6 30.05 1018 10 16 0.72 18.29
6:53 pm 18:53 Sunny 84 28.9 76 24.4 77 77 Calm 30.04 1017 10 16 0.00 0.00
7:53 pm 19:53 Sunny 80 26.7 76 24.4 87 87 Calm 30.05 1018 9 14 0.00 0.00
8:53 pm 20:53 Clear 76 24.4 74 23.3 94 94 Calm 30.06 1018 7 11 0.00 0.00
9:53 pm 21:53 Clear with Mist and Fog 76 24.4 73 22.8 91 91 Calm 30.07 1018 6 10 0.00 0.00
10:53 pm 22:53 Clear with Mist and Fog 76 24.4 73 22.8 91 91 S 3 6 30.09 1019 6 10 0.00 0.00
11:53 pm 23:53 Clear 76 24.4 73 22.8 91 91 Calm 30.08 1019 8 13 0.00 0.00

Powered by AerisWeather